NORTHEAST SUFFOLK  -  Rip Current Statement Rip Current Statement        NORTHERN NASSAU  -  Rip Current Statement Rip Current Statement        NORTHERN QUEENS  -  Rip Current Statement Rip Current Statement     Air Quality Alert Air Quality Alert        NORTHWEST SUFFOLK  -  Rip Current Statement Rip Current Statement        SOUTHEAST SUFFOLK  -  Rip Current Statement Rip Current Statement        SOUTHERN NASSAU  -  Rip Current Statement Rip Current Statement        SOUTHERN QUEENS  -  Rip Current Statement Rip Current Statement     Air Quality Alert Air Quality Alert        SOUTHWEST SUFFOLK  -  Rip Current Statement Rip Current Statement      

Active alerts

Northern Queens
  Details for Northern Queens Rip Current Statement  +1 additional alert
Southern Queens
  Details for Southern Queens Rip Current Statement  +1 additional alert
Northern Nassau
  Details for Northern Nassau Rip Current Statement
Southern Nassau
  Details for Southern Nassau Rip Current Statement
Northwest Suffolk
  Details for Northwest Suffolk Rip Current Statement
Southwest Suffolk
  Details for Southwest Suffolk Rip Current Statement
Northeast Suffolk
  Details for Northeast Suffolk Rip Current Statement
Southeast Suffolk
  Details for Southeast Suffolk Rip Current Statement


WXM80 ListenWXM80 Stop

You find our weather info also at:

UK Metoffice

WeatherCloud

Weather Underground

Northeastern Weather Network

AWEKAS

Citizen Weather Observer Program (CWOP)

HAMweather, WeatherForYou, PWS Weather


Weather Underground History page Text

Daily Summary for November 2, 2016 Units:  English    Metric   Both
« Previous Day
Next Day »
Daily Weekly Monthly Yearly Custom
  High: Low: Average:
Temperature: 69.5 °F 50.0 °F 59.4 °F
Dew Point: 58.3 °F 47.8 °F 53.7 °F
Humidity: 93 % 66 % 82 %
Wind Speed: 5.6 mph 0.0 mph 1.2 mph
Wind Gust: 14.0 mph - -
Wind:- - WSW
Pressure: 30.29 in 30.06 in -
Precipitation: 0.00 in    
Historical Graphs
 
 
Tabular Data for November 2, 2016
Time Temperature Dew Point Pressure Wind Wind Speed Wind Gust Humidity Rainfall Rate (Hourly)
00:00 50.0 °F 47.8 °F 30.27 in SW 0.7 mph 1.2 mph 92 % 0.00 in
00:05 50.1 °F 47.9 °F 30.27 in Calm     92 % 0.00 in
00:11 50.1 °F 47.9 °F 30.27 in Calm   1.2 mph 92 % 0.00 in
00:16 50.2 °F 48.0 °F 30.28 in Calm   1.2 mph 92 % 0.00 in
00:21 50.3 °F 48.1 °F 30.28 in Calm     92 % 0.00 in
00:26 50.5 °F 48.6 °F 30.28 in SSW 0.1 mph 2.3 mph 93 % 0.00 in
00:31 50.6 °F 48.7 °F 30.28 in WSW 0.1 mph 1.2 mph 93 % 0.00 in
00:41 50.9 °F 48.9 °F 30.29 in SW 1.0 mph 2.3 mph 93 % 0.00 in
00:46 51.1 °F 49.1 °F 30.28 in Calm     93 % 0.00 in
00:51 51.3 °F 49.3 °F 30.28 in Calm   3.5 mph 93 % 0.00 in
00:56 51.4 °F 49.2 °F 30.28 in Calm     92 % 0.00 in
01:02 51.5 °F 49.3 °F 30.28 in Calm   1.2 mph 92 % 0.00 in
01:07 51.7 °F 49.5 °F 30.28 in Calm     92 % 0.00 in
01:12 51.8 °F 49.5 °F 30.28 in SW 0.2 mph 1.2 mph 92 % 0.00 in
01:17 51.9 °F 49.4 °F 30.28 in SW 0.1 mph 1.2 mph 91 % 0.00 in
01:22 52.0 °F 49.5 °F 30.28 in SW 0.9 mph 2.3 mph 91 % 0.00 in
01:27 52.2 °F 49.7 °F 30.28 in SW 0.1 mph 1.2 mph 91 % 0.00 in
01:32 52.3 °F 49.5 °F 30.27 in Calm   2.3 mph 90 % 0.00 in
01:37 52.4 °F 49.6 °F 30.27 in SW 1.8 mph 3.5 mph 90 % 0.00 in
01:42 52.5 °F 49.7 °F 30.27 in SSW 0.9 mph 2.0 mph 90 % 0.00 in
01:47 52.6 °F 49.8 °F 30.27 in WSW 0.2 mph 1.2 mph 90 % 0.00 in
01:52 52.7 °F 49.5 °F 30.27 in SW 0.2 mph 3.5 mph 89 % 0.00 in
01:58 52.9 °F 49.7 °F 30.27 in Calm   2.3 mph 89 % 0.00 in
02:03 53.0 °F 49.8 °F 30.27 in WSW 0.1 mph 1.2 mph 89 % 0.00 in
02:08 53.1 °F 49.9 °F 30.27 in WSW 0.8 mph 2.3 mph 89 % 0.00 in
02:13 53.2 °F 49.7 °F 30.27 in SW 0.2 mph 1.2 mph 88 % 0.00 in
02:18 53.3 °F 49.8 °F 30.27 in SW 0.1 mph 1.2 mph 88 % 0.00 in
02:23 53.4 °F 49.9 °F 30.27 in Calm     88 % 0.00 in
02:28 53.4 °F 49.9 °F 30.27 in SW 0.4 mph 1.2 mph 88 % 0.00 in
02:33 53.5 °F 50.0 °F 30.27 in SW 0.4 mph 2.0 mph 88 % 0.00 in
02:38 53.6 °F 50.1 °F 30.27 in Calm     88 % 0.00 in
02:43 53.6 °F 50.1 °F 30.27 in Calm   2.3 mph 88 % 0.00 in
02:49 53.7 °F 49.9 °F 30.27 in Calm   2.3 mph 87 % 0.00 in
02:54 53.7 °F 49.9 °F 30.27 in SSW 0.8 mph 2.3 mph 87 % 0.00 in
02:59 53.8 °F 50.0 °F 30.26 in SW 0.7 mph 2.3 mph 87 % 0.00 in
03:09 53.9 °F 50.1 °F 30.26 in Calm     87 % 0.00 in
03:14 53.9 °F 50.1 °F 30.26 in Calm   1.2 mph 87 % 0.00 in
03:19 54.0 °F 50.2 °F 30.26 in SW 1.4 mph 3.0 mph 87 % 0.00 in
03:24 54.0 °F 50.2 °F 30.26 in WSW 0.2 mph 2.3 mph 87 % 0.00 in
03:29 54.1 °F 50.3 °F 30.26 in SW 1.6 mph 3.5 mph 87 % 0.00 in
03:34 54.1 °F 50.3 °F 30.26 in SW 1.1 mph 2.3 mph 87 % 0.00 in
03:40 54.2 °F 50.1 °F 30.26 in SSW 2.3 mph 6.9 mph 86 % 0.00 in
03:45 54.2 °F 50.1 °F 30.25 in SW 1.1 mph 3.5 mph 86 % 0.00 in
03:50 54.3 °F 50.2 °F 30.25 in SSW 3.6 mph 4.6 mph 86 % 0.00 in
03:55 54.4 °F 50.3 °F 30.25 in SW 2.3 mph 3.5 mph 86 % 0.00 in
04:00 54.4 °F 50.3 °F 30.25 in SW 1.2 mph 3.5 mph 86 % 0.00 in
04:05 54.5 °F 50.4 °F 30.25 in WSW 1.8 mph 4.0 mph 86 % 0.00 in
04:10 54.5 °F 50.4 °F 30.25 in SW 1.2 mph 3.5 mph 86 % 0.00 in
04:15 54.6 °F 50.2 °F 30.25 in WSW 1.5 mph 4.0 mph 85 % 0.00 in
04:20 54.6 °F 50.2 °F 30.24 in Calm   3.0 mph 85 % 0.00 in
04:25 54.6 °F 50.2 °F 30.24 in SW 1.0 mph 7.0 mph 85 % 0.00 in
04:30 54.5 °F 50.1 °F 30.24 in Calm   3.0 mph 85 % 0.00 in
04:35 54.5 °F 50.1 °F 30.24 in West 1.0 mph 3.0 mph 85 % 0.00 in
04:40 54.5 °F 50.1 °F 30.24 in West 0.6 mph 1.2 mph 85 % 0.00 in
04:45 54.4 °F 50.0 °F 30.24 in WSW 1.0 mph 4.0 mph 85 % 0.00 in
04:50 54.3 °F 49.9 °F 30.24 in SW 1.0 mph 3.0 mph 85 % 0.00 in
04:55 54.2 °F 49.8 °F 30.24 in WSW 2.0 mph 2.3 mph 85 % 0.00 in
05:00 54.1 °F 50.0 °F 30.23 in SW 0.9 mph 4.6 mph 86 % 0.00 in
05:05 54.0 °F 49.9 °F 30.23 in SW 0.3 mph 2.3 mph 86 % 0.00 in
05:11 53.9 °F 49.8 °F 30.23 in Calm     86 % 0.00 in
05:21 53.8 °F 49.7 °F 30.23 in SW 0.3 mph 2.3 mph 86 % 0.00 in
05:26 53.7 °F 49.9 °F 30.23 in Calm   1.2 mph 87 % 0.00 in
05:31 53.7 °F 49.6 °F 30.23 in WSW 1.0 mph 3.0 mph 86 % 0.00 in
05:36 53.6 °F 49.8 °F 30.23 in Calm     87 % 0.00 in
05:41 53.5 °F 49.4 °F 30.23 in Calm     86 % 0.00 in
05:46 53.5 °F 49.4 °F 30.23 in Calm     86 % 0.00 in
05:51 53.3 °F 49.2 °F 30.23 in Calm   1.2 mph 86 % 0.00 in
05:56 53.2 °F 49.4 °F 30.24 in Calm   3.5 mph 87 % 0.00 in
06:01 53.1 °F 49.3 °F 30.23 in Calm     87 % 0.00 in
06:06 53.0 °F 49.2 °F 30.24 in Calm   1.2 mph 87 % 0.00 in
06:11 52.8 °F 49.3 °F 30.24 in Calm     88 % 0.00 in
06:17 52.7 °F 49.2 °F 30.24 in Calm     88 % 0.00 in
06:22 52.6 °F 49.1 °F 30.23 in Calm   1.2 mph 88 % 0.00 in
06:27 52.5 °F 49.0 °F 30.23 in WSW 0.3 mph 2.3 mph 88 % 0.00 in
06:32 52.4 °F 48.9 °F 30.23 in Calm     88 % 0.00 in
06:37 52.3 °F 48.9 °F 30.23 in Calm     88 % 0.00 in
06:42 52.1 °F 48.7 °F 30.23 in Calm     88 % 0.00 in
06:47 52.1 °F 48.7 °F 30.23 in Calm     88 % 0.00 in
06:52 51.9 °F 48.5 °F 30.23 in WSW 1.1 mph 3.5 mph 88 % 0.00 in
06:57 51.8 °F 48.7 °F 30.23 in WSW 0.6 mph 1.2 mph 89 % 0.00 in
07:03 51.7 °F 48.6 °F 30.23 in Calm     89 % 0.00 in
07:08 51.6 °F 48.5 °F 30.23 in Calm     89 % 0.00 in
07:13 51.5 °F 48.4 °F 30.23 in WSW 0.8 mph 3.5 mph 89 % 0.00 in
07:18 51.4 °F 48.6 °F 30.23 in South 0.2 mph 2.3 mph 90 % 0.00 in
07:23 51.4 °F 48.6 °F 30.24 in WSW 0.6 mph 1.2 mph 90 % 0.00 in
07:28 51.4 °F 48.6 °F 30.24 in WNW 2.0 mph 4.6 mph 90 % 0.00 in
07:33 51.3 °F 48.8 °F 30.24 in Calm   1.2 mph 91 % 0.00 in
07:38 51.3 °F 48.8 °F 30.24 in SW 0.2 mph 1.2 mph 91 % 0.00 in
07:43 51.4 °F 48.9 °F 30.24 in Calm   1.2 mph 91 % 0.00 in
07:48 51.4 °F 48.9 °F 30.24 in Calm     91 % 0.00 in
07:54 51.4 °F 48.9 °F 30.24 in SW 0.9 mph 3.5 mph 91 % 0.00 in
07:59 51.5 °F 49.0 °F 30.24 in Calm     91 % 0.00 in
08:04 51.5 °F 49.0 °F 30.24 in Calm     91 % 0.00 in
08:09 51.6 °F 49.1 °F 30.24 in Calm   1.2 mph 91 % 0.00 in
08:14 51.7 °F 49.5 °F 30.24 in WSW 0.5 mph 3.0 mph 92 % 0.00 in
08:19 51.8 °F 49.5 °F 30.24 in WSW 1.8 mph 3.5 mph 92 % 0.00 in
08:24 51.9 °F 49.6 °F 30.24 in WSW 0.2 mph 2.3 mph 92 % 0.00 in
08:29 52.1 °F 49.8 °F 30.24 in SW 2.7 mph 9.2 mph 92 % 0.00 in
08:34 52.2 °F 49.9 °F 30.24 in SSW 0.8 mph 3.5 mph 92 % 0.00 in
08:39 52.4 °F 50.1 °F 30.24 in WSW 0.1 mph 1.2 mph 92 % 0.00 in
08:45 52.6 °F 50.0 °F 30.24 in SW 1.1 mph 4.6 mph 91 % 0.00 in
08:50 52.9 °F 50.3 °F 30.24 in SSW 2.5 mph 5.0 mph 91 % 0.00 in
08:55 53.2 °F 50.6 °F 30.24 in SW 2.4 mph 6.9 mph 91 % 0.00 in
09:00 53.4 °F 50.5 °F 30.24 in WSW 2.6 mph 5.8 mph 90 % 0.00 in
09:05 53.7 °F 50.8 °F 30.24 in SW 3.6 mph 4.6 mph 90 % 0.00 in
09:10 54.1 °F 50.9 °F 30.24 in WSW 1.8 mph 3.5 mph 89 % 0.00 in
09:15 54.3 °F 51.1 °F 30.24 in SW 2.3 mph 8.1 mph 89 % 0.00 in
09:20 54.6 °F 51.4 °F 30.24 in SW 1.7 mph 9.2 mph 89 % 0.00 in
09:25 55.0 °F 51.5 °F 30.24 in WSW 5.0 mph 9.0 mph 88 % 0.00 in
09:30 55.4 °F 51.6 °F 30.24 in SW 3.0 mph 7.0 mph 87 % 0.00 in
09:35 55.9 °F 52.4 °F 30.24 in SSW 3.0 mph 6.0 mph 88 % 0.00 in
09:40 56.6 °F 52.4 °F 30.23 in Calm   5.0 mph 86 % 0.00 in
09:45 57.3 °F 52.8 °F 30.23 in SW 3.6 mph 9.0 mph 85 % 0.00 in
09:50 57.8 °F 53.0 °F 30.23 in SW 5.0 mph 14.0 mph 84 % 0.00 in
09:55 58.4 °F 52.9 °F 30.23 in SSW 2.0 mph 8.0 mph 82 % 0.00 in
10:00 58.8 °F 53.0 °F 30.23 in WSW 4.5 mph 6.0 mph 81 % 0.00 in
10:05 59.2 °F 53.3 °F 30.23 in WSW 5.0 mph 7.0 mph 81 % 0.00 in
10:10 59.5 °F 53.4 °F 30.23 in SW 2.0 mph 9.0 mph 80 % 0.00 in
10:15 59.9 °F 53.7 °F 30.22 in WSW 4.7 mph 8.1 mph 80 % 0.00 in
10:20 60.3 °F 53.7 °F 30.22 in SW 5.0 mph 10.0 mph 79 % 0.00 in
10:25 60.7 °F 53.8 °F 30.22 in WSW 3.0 mph 7.0 mph 78 % 0.00 in
10:30 61.1 °F 53.8 °F 30.22 in WSW 5.0 mph 9.0 mph 77 % 0.00 in
10:35 61.5 °F 54.2 °F 30.22 in South 4.5 mph 8.1 mph 77 % 0.00 in
10:40 61.8 °F 54.2 °F 30.22 in WSW 5.0 mph 9.2 mph 76 % 0.00 in
10:46 62.2 °F 54.5 °F 30.22 in SW 4.1 mph 6.9 mph 76 % 0.00 in
10:51 62.6 °F 54.9 °F 30.21 in WSW 2.0 mph 7.0 mph 76 % 0.00 in
10:56 63.0 °F 54.6 °F 30.21 in NW 1.9 mph 6.9 mph 74 % 0.00 in
11:01 63.4 °F 55.0 °F 30.21 in West 0.4 mph 5.8 mph 74 % 0.00 in
11:06 64.0 °F 55.9 °F 30.21 in WSW 2.2 mph 7.0 mph 75 % 0.00 in
11:11 64.4 °F 55.6 °F 30.21 in WSW 4.1 mph 8.0 mph 73 % 0.00 in
11:16 64.9 °F 55.3 °F 30.21 in WSW 2.2 mph 9.2 mph 71 % 0.00 in
11:21 65.3 °F 55.3 °F 30.21 in WSW 2.8 mph 6.9 mph 70 % 0.00 in
11:26 65.8 °F 56.1 °F 30.21 in SW 4.1 mph 5.8 mph 71 % 0.00 in
11:31 66.1 °F 55.6 °F 30.21 in SW 5.6 mph 9.2 mph 69 % 0.00 in
11:37 66.1 °F 55.6 °F 30.21 in SW 3.3 mph 6.9 mph 69 % 0.00 in
11:42 66.1 °F 55.2 °F 30.21 in WSW 3.2 mph 5.8 mph 68 % 0.00 in
11:47 66.1 °F 55.6 °F 30.20 in WNW 2.5 mph 5.8 mph 69 % 0.00 in
11:52 66.2 °F 55.7 °F 30.20 in WNW 1.1 mph 3.5 mph 69 % 0.00 in
11:57 66.4 °F 56.3 °F 30.20 in WNW 2.3 mph 5.8 mph 70 % 0.00 in
12:02 66.5 °F 55.6 °F 30.20 in WNW 4.1 mph 8.1 mph 68 % 0.00 in
12:07 66.6 °F 55.3 °F 30.19 in WNW 0.7 mph 2.3 mph 67 % 0.00 in
12:12 66.6 °F 55.7 °F 30.19 in WSW 1.7 mph 4.0 mph 68 % 0.00 in
12:17 66.6 °F 55.3 °F 30.18 in SSW 2.2 mph 9.2 mph 67 % 0.00 in
12:22 66.5 °F 55.6 °F 30.18 in SSW 4.1 mph 6.9 mph 68 % 0.00 in
12:27 66.3 °F 55.8 °F 30.17 in WSW 2.0 mph 5.8 mph 69 % 0.00 in
12:33 66.3 °F 56.2 °F 30.17 in SW 3.7 mph 5.8 mph 70 % 0.00 in
12:38 66.2 °F 56.1 °F 30.16 in WNW 1.9 mph 4.0 mph 70 % 0.00 in
12:43 66.3 °F 56.2 °F 30.16 in WNW 1.9 mph 3.5 mph 70 % 0.00 in
12:53 66.6 °F 56.5 °F 30.15 in WNW 5.4 mph 10.4 mph 70 % 0.00 in
12:58 66.8 °F 56.3 °F 30.16 in WNW 2.4 mph 3.5 mph 69 % 0.00 in
13:03 67.0 °F 56.5 °F 30.16 in West 3.4 mph 8.1 mph 69 % 0.00 in
13:08 67.0 °F 56.5 °F 30.15 in WNW 4.6 mph 8.1 mph 69 % 0.00 in
13:13 67.0 °F 56.5 °F 30.15 in WNW 3.7 mph 8.1 mph 69 % 0.00 in
13:18 67.0 °F 56.5 °F 30.16 in SW 3.0 mph 8.1 mph 69 % 0.00 in
13:24 67.0 °F 56.9 °F 30.15 in WSW 1.9 mph 4.6 mph 70 % 0.00 in
13:29 67.0 °F 57.3 °F 30.16 in NW 2.6 mph 5.8 mph 71 % 0.00 in
13:34 66.9 °F 56.8 °F 30.15 in NNW 2.3 mph 5.8 mph 70 % 0.00 in
13:39 67.0 °F 57.3 °F 30.14 in West 4.8 mph 5.8 mph 71 % 0.00 in
13:44 67.2 °F 57.1 °F 30.14 in WSW 3.4 mph 6.9 mph 70 % 0.00 in
13:54 67.6 °F 57.5 °F 30.14 in WNW 4.3 mph 6.9 mph 70 % 0.00 in
13:59 67.8 °F 57.3 °F 30.14 in West 4.1 mph 4.6 mph 69 % 0.00 in
14:04 68.0 °F 57.4 °F 30.13 in NNW 1.4 mph 4.6 mph 69 % 0.00 in
14:09 68.2 °F 57.2 °F 30.13 in WSW 3.5 mph 5.0 mph 68 % 0.00 in
14:14 68.4 °F 57.4 °F 30.13 in NW 3.7 mph 5.8 mph 68 % 0.00 in
14:19 68.5 °F 57.5 °F 30.12 in WNW 3.4 mph 6.0 mph 68 % 0.00 in
14:24 68.5 °F 57.5 °F 30.12 in SW 2.3 mph 5.8 mph 68 % 0.00 in
14:30 68.6 °F 57.6 °F 30.12 in West 1.4 mph 2.3 mph 68 % 0.00 in
14:35 68.8 °F 57.8 °F 30.11 in WSW 1.9 mph 3.5 mph 68 % 0.00 in
14:40 68.9 °F 57.5 °F 30.11 in WSW 2.9 mph 3.5 mph 67 % 0.00 in
14:45 69.1 °F 57.7 °F 30.11 in West 1.3 mph 3.5 mph 67 % 0.00 in
14:50 69.2 °F 57.4 °F 30.11 in West 4.4 mph 6.9 mph 66 % 0.00 in
14:55 69.4 °F 57.5 °F 30.11 in WSW 1.4 mph 2.3 mph 66 % 0.00 in
15:00 69.5 °F 57.6 °F 30.11 in WNW 2.9 mph 5.8 mph 66 % 0.00 in
15:05 69.5 °F 57.6 °F 30.11 in WSW 3.8 mph 5.8 mph 66 % 0.00 in
15:10 69.4 °F 58.0 °F 30.11 in WNW 1.4 mph 6.9 mph 67 % 0.00 in
15:15 69.3 °F 57.9 °F 30.11 in WSW 3.0 mph 6.0 mph 67 % 0.00 in
15:20 69.2 °F 58.2 °F 30.11 in WSW 2.0 mph 5.0 mph 68 % 0.00 in
15:25 69.2 °F 58.2 °F 30.10 in West 2.0 mph 5.0 mph 68 % 0.00 in
15:30 69.1 °F 58.1 °F 30.10 in West 1.0 mph 4.0 mph 68 % 0.00 in
15:35 69.0 °F 58.0 °F 30.10 in WSW 1.2 mph 2.3 mph 68 % 0.00 in
15:40 68.9 °F 57.9 °F 30.11 in Calm   7.0 mph 68 % 0.00 in
15:45 68.9 °F 57.9 °F 30.10 in SW 2.0 mph 4.0 mph 68 % 0.00 in
15:50 68.8 °F 58.2 °F 30.10 in WSW 2.0 mph 5.0 mph 69 % 0.00 in
15:55 68.7 °F 58.1 °F 30.10 in SW 1.0 mph 4.0 mph 69 % 0.00 in
16:00 68.6 °F 58.0 °F 30.10 in WSW 1.9 mph 3.5 mph 69 % 0.00 in
16:05 68.5 °F 57.9 °F 30.10 in SW 1.2 mph 1.2 mph 69 % 0.00 in
16:11 68.5 °F 58.3 °F 30.10 in SW 0.9 mph 2.3 mph 70 % 0.00 in
16:16 68.4 °F 58.2 °F 30.11 in WSW 3.1 mph 3.5 mph 70 % 0.00 in
16:21 68.2 °F 58.0 °F 30.11 in SW 1.3 mph 3.5 mph 70 % 0.00 in
16:26 68.1 °F 57.9 °F 30.10 in West 0.4 mph 1.2 mph 70 % 0.00 in
16:31 68.0 °F 57.8 °F 30.10 in Calm   1.2 mph 70 % 0.00 in
16:36 67.9 °F 57.8 °F 30.10 in West 0.1 mph 1.2 mph 70 % 0.00 in
16:41 67.8 °F 58.1 °F 30.10 in WSW 0.7 mph 1.0 mph 71 % 0.00 in
16:46 67.7 °F 58.0 °F 30.09 in WSW 0.1 mph 1.2 mph 71 % 0.00 in
16:51 67.6 °F 57.9 °F 30.09 in WSW 0.8 mph 2.3 mph 71 % 0.00 in
16:56 67.4 °F 57.7 °F 30.10 in Calm     71 % 0.00 in
17:02 67.3 °F 57.6 °F 30.10 in Calm     71 % 0.00 in
17:07 67.1 °F 57.8 °F 30.09 in Calm   1.0 mph 72 % 0.00 in
17:12 66.9 °F 57.6 °F 30.09 in Calm     72 % 0.00 in
17:17 66.7 °F 57.4 °F 30.09 in Calm     72 % 0.00 in
17:22 66.5 °F 57.6 °F 30.09 in Calm     73 % 0.00 in
17:27 66.3 °F 57.4 °F 30.09 in Calm     73 % 0.00 in
17:32 66.1 °F 57.6 °F 30.09 in Calm     74 % 0.00 in
17:37 65.8 °F 57.3 °F 30.09 in Calm     74 % 0.00 in
17:42 65.5 °F 57.4 °F 30.09 in South 0.1 mph 1.0 mph 75 % 0.00 in
17:47 65.2 °F 57.1 °F 30.09 in South 0.1 mph   75 % 0.00 in
17:52 64.9 °F 57.2 °F 30.09 in South 0.1 mph 1.2 mph 76 % 0.00 in
17:57 64.6 °F 57.2 °F 30.09 in Calm   1.2 mph 77 % 0.00 in
18:03 64.3 °F 56.9 °F 30.09 in South 0.8 mph 2.3 mph 77 % 0.00 in
18:08 64.1 °F 56.7 °F 30.09 in Calm   1.2 mph 77 % 0.00 in
18:13 63.8 °F 56.8 °F 30.09 in Calm     78 % 0.00 in
18:18 63.6 °F 56.6 °F 30.09 in Calm     78 % 0.00 in
18:23 63.2 °F 56.6 °F 30.09 in Calm     79 % 0.00 in
18:28 63.0 °F 56.7 °F 30.09 in Calm     80 % 0.00 in
18:33 62.6 °F 56.3 °F 30.09 in Calm     80 % 0.00 in
18:38 62.4 °F 56.5 °F 30.09 in Calm     81 % 0.00 in
18:43 62.1 °F 56.2 °F 30.09 in South 0.4 mph   81 % 0.00 in
18:48 61.9 °F 56.0 °F 30.09 in South 0.1 mph 2.3 mph 81 % 0.00 in
18:54 61.7 °F 56.1 °F 30.09 in SSW 2.0 mph 4.0 mph 82 % 0.00 in
18:59 61.5 °F 56.3 °F 30.09 in SW 0.6 mph 2.3 mph 83 % 0.00 in
19:04 61.4 °F 56.2 °F 30.09 in Calm   1.2 mph 83 % 0.00 in
19:09 61.2 °F 56.3 °F 30.10 in SW 0.7 mph 2.3 mph 84 % 0.00 in
19:14 61.1 °F 56.2 °F 30.10 in SW 0.2 mph 1.2 mph 84 % 0.00 in
19:19 61.0 °F 56.1 °F 30.10 in Calm   2.3 mph 84 % 0.00 in
19:24 60.9 °F 56.4 °F 30.10 in SW 1.7 mph 2.3 mph 85 % 0.00 in
19:29 60.8 °F 56.3 °F 30.09 in WSW 1.4 mph 3.5 mph 85 % 0.00 in
19:34 60.7 °F 56.2 °F 30.09 in WSW 0.2 mph 1.2 mph 85 % 0.00 in
19:39 60.6 °F 56.1 °F 30.09 in SW 1.1 mph 2.3 mph 85 % 0.00 in
19:45 60.5 °F 56.3 °F 30.09 in SW 1.2 mph 5.8 mph 86 % 0.00 in
19:50 60.5 °F 56.3 °F 30.09 in SSW 0.9 mph 2.3 mph 86 % 0.00 in
19:55 60.5 °F 56.6 °F 30.09 in SW 0.5 mph 2.3 mph 87 % 0.00 in
20:00 60.4 °F 56.5 °F 30.09 in SW 0.7 mph 2.3 mph 87 % 0.00 in
20:05 60.4 °F 56.5 °F 30.09 in SW 2.2 mph 6.0 mph 87 % 0.00 in
20:10 60.4 °F 56.5 °F 30.09 in SW 0.2 mph 3.5 mph 87 % 0.00 in
20:15 60.4 °F 56.5 °F 30.09 in Calm   3.0 mph 87 % 0.00 in
20:20 60.5 °F 56.6 °F 30.09 in Calm   2.0 mph 87 % 0.00 in
20:25 60.5 °F 56.6 °F 30.09 in Calm   2.0 mph 87 % 0.00 in
20:30 60.5 °F 56.6 °F 30.09 in Calm   2.0 mph 87 % 0.00 in
20:35 60.5 °F 56.6 °F 30.09 in Calm   2.0 mph 87 % 0.00 in
20:40 60.5 °F 56.6 °F 30.09 in Calm   1.0 mph 87 % 0.00 in
20:45 60.5 °F 56.6 °F 30.09 in Calm   3.0 mph 87 % 0.00 in
20:50 60.5 °F 56.9 °F 30.09 in Calm   3.0 mph 88 % 0.00 in
20:55 60.5 °F 56.9 °F 30.09 in Calm   4.0 mph 88 % 0.00 in
21:00 60.6 °F 57.0 °F 30.09 in SW 1.0 mph 3.5 mph 88 % 0.00 in
21:05 60.7 °F 57.1 °F 30.09 in WSW 0.9 mph 3.5 mph 88 % 0.00 in
21:11 60.7 °F 57.1 °F 30.09 in SW 1.9 mph 3.5 mph 88 % 0.00 in
21:16 60.8 °F 57.2 °F 30.09 in SW 1.5 mph 3.5 mph 88 % 0.00 in
21:21 60.9 °F 57.3 °F 30.09 in WSW 1.6 mph 3.5 mph 88 % 0.00 in
21:26 60.9 °F 57.3 °F 30.09 in SW 1.1 mph 4.6 mph 88 % 0.00 in
21:31 61.0 °F 57.4 °F 30.09 in WSW 1.6 mph 4.6 mph 88 % 0.00 in
21:36 61.0 °F 57.4 °F 30.09 in WSW 2.1 mph 4.0 mph 88 % 0.00 in
21:41 60.9 °F 57.0 °F 30.09 in SW 0.9 mph 4.0 mph 87 % 0.00 in
21:46 60.9 °F 57.0 °F 30.09 in Calm   1.2 mph 87 % 0.00 in
21:51 60.9 °F 57.0 °F 30.08 in Calm     87 % 0.00 in
21:56 60.8 °F 56.9 °F 30.08 in Calm     87 % 0.00 in
22:01 60.8 °F 56.9 °F 30.09 in Calm     87 % 0.00 in
22:06 60.7 °F 56.8 °F 30.08 in Calm     87 % 0.00 in
22:11 60.6 °F 56.7 °F 30.08 in Calm     87 % 0.00 in
22:17 60.5 °F 56.6 °F 30.08 in Calm     87 % 0.00 in
22:22 60.3 °F 56.7 °F 30.08 in Calm     88 % 0.00 in
22:27 60.2 °F 56.3 °F 30.08 in Calm     87 % 0.00 in
22:32 60.0 °F 56.1 °F 30.08 in Calm     87 % 0.00 in
22:37 59.9 °F 56.0 °F 30.08 in Calm     87 % 0.00 in
22:42 59.7 °F 55.8 °F 30.07 in Calm     87 % 0.00 in
22:47 59.6 °F 55.7 °F 30.07 in Calm     87 % 0.00 in
22:52 59.5 °F 55.9 °F 30.07 in Calm     88 % 0.00 in
22:57 59.3 °F 55.7 °F 30.07 in Calm     88 % 0.00 in
23:02 59.2 °F 55.6 °F 30.07 in Calm     88 % 0.00 in
23:13 59.0 °F 56.1 °F 30.07 in SW 0.5 mph 1.2 mph 90 % 0.00 in
23:18 59.0 °F 56.1 °F 30.07 in SW 0.5 mph 2.3 mph 90 % 0.00 in
23:23 58.9 °F 56.0 °F 30.07 in Calm     90 % 0.00 in
23:28 58.9 °F 56.0 °F 30.07 in Calm     90 % 0.00 in
23:33 58.9 °F 56.3 °F 30.07 in WSW 0.5 mph 2.3 mph 91 % 0.00 in
23:38 58.9 °F 56.3 °F 30.07 in WSW 1.4 mph 3.0 mph 91 % 0.00 in
23:43 59.0 °F 56.7 °F 30.07 in SW 1.6 mph 3.5 mph 92 % 0.00 in
23:48 59.0 °F 56.7 °F 30.06 in SSW 0.7 mph 2.3 mph 92 % 0.00 in
23:53 59.1 °F 56.8 °F 30.06 in WSW 1.6 mph 3.5 mph 92 % 0.00 in
23:59 59.2 °F 56.9 °F 30.06 in SW 2.1 mph 3.5 mph 92 % 0.00 in
Crab Meadow Weather
Compliments of Weather Underground - 3 mb

Script developed by  Jim McMurry - jmcmurry@mwt.net Adapted for the template by  Wim van der Kuil - Leuven-Template.eu

Recycling: In 2006, a record 53.4 percent of the paper consumed in the U.S. was recovered for recycling. Americans recovered an extraordinary 53.5 million tons, averaging 360 pounds per person.